Powrót do katalogu

CZ-6A DEB

AktywnyPO
NORAD 60627·DEBRIS·🇨🇳 China

Wystrzelony Aug 6, 2024 z Taiyuan Satellite Launch Center

Loading…

Następne Przeloty (najbliższe 24 godziny)

TLE

ŚwieżeSource: Space-Track

Epoka: Sep 14, 2026, 02:54 UTC

1 60627U 24140AC  26257.12147684 -.00000280  00000-0 -30210-3 0  9998
2 60627  88.0630 204.7165 0539252 234.6333 120.3282 13.25546372101629

Śledź CZ-6A DEB w czasie rzeczywistym z AllMySat

Download on the App Store